SCP
0 0 0 0 0 0 0 0 0 0 0 0 0 0 0 0 0 0 0 0 0 -0 -0 -0 -0 -0 -0 -0 -0 -0 -0 -0 -0 -0 -0 -0 -0 -0 -0 -0 -0 -0 -0 -0 -0 -0 -0 -0 -0
0 0 0 0 0 0 0 0 0 0 0 0 0 0 0 0 0 0 0 0 0 0 0 0 -0 -0 -0 -0 -0 -0 -0 -0 -0 -0 -0 -0 -0 -0 -0 -0 -0 -0 -0 -0 -0 -0 -0 -0 -0
0 0 0 0 0 0 0 0 0 0 0 0 0 0 0 0 0 0 0 0 0 0 0 0 -0 -0 -0 -0 -0 -0 -0 -0 -0 -0 -0 -0 -0 -0 -0 -0 -0 -0 -0 -0 -0 0 0 0 0
0 0 0 0 0 0 0 0 0 0 0 0 0 0 0 0 0 0 0 0 0 0 0 0 -0 -0 -0 -0 -0 -0 -0 -0 -0 -0 -0 -0 -0 -0 -0 -0 -0 -0 -0 0 0 0 0 0 0
0 0 0 0 0 0 0 0 0 0 0 0 0 0 0 0 0 0 0 0 0 0 0 0 -0 -0 -0 -0 -0 -0 -0 -0 -0 -0 -0 -0 -0 -0 -0 -0 -0 -0 -0 0 0 0 0 0 0
0 0 0 0 0 0 0 0 0 0 0 0 0 0 0 0 0 0 0 0 0 0 0 0 0 0 -0 -0 -0 -0 -0 -0 -0 -0 -0 -0 -0 -0 -0 -0 -0 -0 -0 -0 0 0 0 0 0
0 0 0 0 0 0 0 0 0 0 0 0 0 0 0 0 0 0 0 0 0 0 0 0 0 0 0 -0 -0 -0 0 -0 -0 -0 -0 -0 -0 -0 -0 -0 -0 -0 -0 -0 -0 -0 0 0 0
0 0 0 0 0 0 0 0 0 0 0 0 0 0 0 0 0 0 0 0 0 0 0 0 0 0 0 0 -0 0 0 0 0 0 -0 -0 -0 -0 -0 -0 -0 -0 -0 -0 -0 -0 0 0 0
0 0 0 0 0 0 0 0 0 0 0 0 0 0 0 0 0 0 0 0 0 0 0 0 0 0 0 0 0 0 0 0 0 0 0 0 0 0 0 0 0 0 0 0 0 0 0 0 0
-0 0 0 0 0 0 0 0 0 0 0 0 0 0 0 0 0 0 0 0 0 0 0 0 0 0 0 0 0 0 0 0 0 0 0 0 0 0 0 0 0 0 0 0 0 0 0 0 0
-0 0 0 0 0 0 0 0 0 0 0 0 0 0 0 0 0 0 0 0 0 0 0 0 0 0 0 0 0 0 0 0 0 0 0 0 0 0 0 0 0 0 0 0 0 0 0 0 0
0 0 0 0 0 0 0 0 0 0 0 0 0 0 0 0 0 0 0 0 0 0 0 0 0 0 0 0 0 0 0 0 0 0 0 0 0 0 0 0 0 0 0 0 0 0 0 0 0
0 0 0 0 -0 -0 0 0 -0 0 0 0 0 0 0 0 0 0 0 0 0 0 0 0 0 0 0 0 0 0 0 0 0 0 0 0 0 0 0 0 0 0 0 0 0 0 0 0 0
-0 -0 0 0 0 -0 0 0 -0 -0 0 0 0 0 0 0 0 0 0 0 0 0 0 0 0 0 0 0 0 0 0 0 0 0 0 0 0 0 0 0 0 0 0 0 0 0 0 0 0
0 0 0 -0 -0 -0 -0 -0 -0 -0 0 -0 0 0 0 0 0 0 0 0 0 0 0 0 0 0 0 0 0 0 0 0 0 0 0 0 0 0 0 0 0 0 0 0 0 0 0 0 0
0 0 0 0 -0 -0 -0 -0 0 -0 -0 0 0 0 0 0 0 0 0 0 0 0 0 0 0 0 0 0 0 0 0 0 0 0 0 0 0 0 0 0 0 0 0 0 0 0 0 0 0
0 0 0 0 -0 -0 -0 -0 -0 -0 -0 -0 0 0 -0 0 0 0 0 0 0 0 0 0 0 0 0 0 0 0 0 0 0 0 0 0 0 0 0 0 0 0 0 0 0 0 0 0 0
0 0 0 0 0 -0 -0 -0 -0 -0 -0 -0 -0 -0 -0 0 -0 -0 0 -0 -0 -0 -0 -0 -0 -0 -0 -0 0 0 0 0 0 0 0 0 0 0 0 -0 0 -0 0 0 0 -0 -0 -0 0
0 0 0 0 0 0 0 -0 -0 -0 -0 -0 0 0 0 0 -0 -0 -0 -0 -0 -0 -0 -0 -0 -0 -0 0 0 0 0 0 0 0 0 0 0 0 0 -0 -0 -0 -0 -0 -0 -0 -0 -0 -0
0 0 0 0 0 0 0 0 0 -0 -0 -0 -0 -0 -0 -0 -0 -0 -0 -0 -0 -0 -0 -0 -0 0 0 0 0 0 0 0 0 0 0 0 0 0 0 -0 -0 -0 -0 -0 -0 -0 -0 -0 -0
0 0 0 0 0 0 0 0 0 0 0 0 0 0 -0 0 0 -0 -0 -0 -0 -0 -0 -0 -0 0 0 0 0 0 0 0 0 0 0 0 0 0 0 -0 -0 -0 -0 -0 -0 -0 -0 -0 -0
0 0 0 0 0 0 0 0 0 0 0 0 0 0 0 0 -0 -0 -0 -0 -0 -0 -0 -0 0 0 0 0 0 0 0 0 0 0 0 0 0 0 0 0 0 0 -0 -0 -0 -0 -0 -0 -0
0 0 0 0 0 0 0 0 0 0 0 -0 0 0 0 0 -0 0 0 0 -0 -0 -0 -0 0 0 0 0 0 0 0 0 0 0 0 0 0 0 0 0 0 -0 -0 -0 -0 -0 -0 -0 -0
0 0 0 0 0 0 0 0 0 0 0 0 -0 -0 -0 -0 -0 0 0 0 -0 -0 0 0 0 0 0 0 0 0 0 0 0 0 0 0 0 0 0 0 0 0 0 0 0 0 0 0 0
0 0 0 0 0 0 0 0 0 0 0 0 0 -0 -0 0 0 0 0 0 0 0 0 0 0 0 0 0 0 0 0 0 0 0 0 0 0 0 0 0 0 0 0 0 0 0 0 0 0
0 0 0 0 0 0 0 0 0 0 0 0 0 0 0 0 0 0 0 0 0 0 0 0 0 0 0 0 0 0 0 0 0 0 0 0 0 0 0 0 0 0 0 0 0 0 0 0 0
0 0 0 0 0 0 0 0 -0 0 0 0 0 0 0 0 0 0 0 0 0 0 0 0 0 0 0 0 0 0 0 0 0 0 0 0 0 0 0 0 0 0 0 0 0 0 0 0 0
0 0 0 0 0 0 0 0 0 0 0 0 0 0 0 0 0 0 0 0 0 0 0 0 0 0 0 0 0 0 0 0 0 0 0 0 0 0 0 0 0 0 0 0 0 0 0 0 0
0 0 0 0 0 0 0 0 0 0 0 0 0 0 0 0 0 0 0 0 0 0 0 0 0 0 0 0 0 0 0 0 0 0 0 0 0 0 0 0 0 0 0 0 0 0 0 0 0
0 0 0 0 0 0 0 0 0 0 0 0 0 0 0 0 0 0 0 0 0 0 0 0 0 0 0 0 0 0 0 0 0 0 0 0 0 0 0 0 0 0 0 0 0 0 0 0 0
Wind_Speed_500mb
13 13 8 11 5 5 6 8 4 8 7 8 16 13 17 17 9 3 5 7 11 19 44 45 44 26 28 33 22 16 19 25 25 23 24 28 27 26 26 25 26 27 25 22 17 15 11 7 9
9 7 10 8 5 9 4 5 9 14 10 11 9 6 14 10 13 10 1 5 11 19 38 50 57 49 35 28 23 23 30 30 31 31 30 25 22 20 20 18 16 12 10 5 11 16 11 4 5
5 5 7 4 1 12 10 4 5 2 23 14 9 18 9 11 16 14 19 8 5 15 28 48 53 53 33 27 22 24 24 28 28 26 27 25 21 19 16 10 7 4 4 7 11 15 15 12 5
3 7 15 7 9 9 7 11 11 3 8 27 16 15 15 23 14 24 18 2 8 11 22 46 47 46 42 33 28 24 20 20 20 18 18 18 16 15 12 9 8 9 11 13 15 14 11 9 5
3 9 9 9 9 8 13 14 23 12 8 20 17 6 10 15 13 19 11 3 5 7 14 19 43 33 35 31 28 23 17 14 16 16 15 13 14 13 12 11 11 11 11 10 9 9 9 8 8
8 6 7 6 7 6 8 21 10 18 20 14 18 7 7 10 10 17 12 7 10 9 11 11 24 35 34 29 24 21 19 15 14 13 11 9 8 7 6 5 6 7 7 6 6 6 7 6 5
10 7 8 10 11 9 7 10 14 10 17 18 14 3 5 11 23 18 20 15 17 14 13 11 19 18 29 39 32 30 25 19 11 5 4 4 4 3 6 5 6 9 7 5 5 6 9 10 8
12 8 8 9 5 5 9 4 6 21 12 3 11 5 5 16 20 16 25 29 27 25 21 14 18 19 19 30 37 34 29 20 13 9 5 3 7 8 8 10 12 14 14 12 11 9 9 12 12
11 9 9 11 6 6 9 7 14 18 27 32 18 14 8 12 13 18 28 34 36 32 31 31 24 24 23 27 30 26 29 19 12 5 3 2 5 5 6 8 9 11 14 20 11 15 14 14 16
22 9 11 12 8 6 18 11 7 10 15 25 22 21 12 15 15 22 31 39 38 39 37 33 33 32 29 27 34 28 26 23 15 10 10 6 3 3 7 12 13 13 14 14 13 14 14 16 17
17 9 5 22 25 19 14 16 10 7 14 16 13 16 21 18 21 29 30 33 37 36 36 37 36 34 32 31 31 32 29 25 22 20 19 17 16 16 14 15 13 15 16 15 15 15 14 14 14
20 37 20 14 19 9 9 10 18 26 12 8 12 15 15 23 25 28 29 32 29 32 31 29 31 33 32 30 26 27 27 24 22 22 21 18 17 17 17 16 16 16 19 21 21 22 24 21 19
24 20 34 39 47 46 38 34 15 21 17 15 15 18 18 13 29 28 31 29 29 30 33 33 27 25 26 27 28 25 24 24 26 25 23 23 23 23 24 25 25 25 26 26 27 27 28 26 24
21 37 21 26 23 23 16 7 5 8 16 14 16 20 21 22 20 26 27 31 28 29 31 36 31 31 29 29 29 29 27 28 28 28 30 29 29 29 29 29 30 31 32 32 32 33 33 32 28
29 17 18 9 4 4 2 7 6 7 6 10 10 7 13 17 19 23 21 22 30 29 25 29 33 29 28 28 31 31 31 28 31 31 30 30 29 30 30 31 32 36 35 34 34 35 35 35 34
2 7 7 12 10 4 4 5 8 8 6 6 5 2 3 6 12 14 13 23 24 26 30 28 27 25 24 24 26 29 28 28 30 29 29 30 30 31 31 33 36 38 37 38 38 40 41 42 41
16 7 8 4 15 6 10 7 12 16 11 10 8 5 7 8 7 8 11 14 18 20 20 23 24 24 21 18 19 21 23 23 26 25 27 29 29 31 31 34 37 38 40 43 47 49 50 49 49
2 9 6 5 8 8 6 4 7 22 17 18 14 11 10 12 14 14 15 16 14 15 19 21 20 21 21 18 17 17 18 19 21 23 26 27 28 29 32 35 37 40 42 46 49 54 57 59 58
10 9 7 7 8 5 3 3 13 25 25 30 29 22 20 18 17 20 20 20 21 22 19 18 17 17 16 15 13 12 13 15 14 18 22 23 25 28 30 34 37 42 45 49 50 54 61 66 71
12 5 8 5 9 4 5 15 18 32 26 37 33 31 28 24 24 26 26 24 24 22 21 20 20 20 16 14 12 11 10 11 11 14 16 18 21 25 29 33 38 40 42 45 52 57 60 66 72
9 7 4 3 9 3 13 12 10 16 38 39 40 39 37 36 33 33 35 34 30 29 26 23 21 20 19 15 13 10 7 6 5 5 8 13 18 23 27 31 35 39 42 45 49 53 57 58 59
5 5 2 6 7 3 10 8 11 11 17 28 57 54 54 49 44 39 39 40 38 32 32 30 27 25 23 20 18 14 11 10 6 2 5 10 14 19 23 27 31 35 38 42 48 51 53 56 57
2 4 5 4 6 7 9 6 14 4 14 28 52 72 68 62 55 49 47 43 39 38 40 36 35 33 28 26 23 20 18 15 11 8 8 10 14 18 22 26 30 34 38 42 44 47 49 50 51
1 2 8 6 4 6 8 7 12 11 18 10 44 77 78 71 66 60 50 43 45 46 47 44 42 37 36 33 30 27 23 20 17 14 13 13 15 18 22 26 31 34 37 39 42 44 45 47 48
9 8 8 11 9 9 2 3 24 14 17 17 35 75 82 78 74 70 65 61 56 55 52 50 50 46 43 40 38 32 28 27 24 21 20 19 20 20 24 28 32 35 38 40 41 43 44 46 48
4 8 8 9 5 9 8 13 14 15 16 42 36 42 72 81 81 80 76 71 64 59 57 56 54 50 48 45 40 37 36 33 31 27 27 27 26 26 28 32 35 38 41 43 45 46 47 48 51
5 6 7 14 2 6 7 16 23 13 19 22 41 38 55 77 84 85 80 77 72 65 61 59 57 53 51 48 43 44 41 39 34 32 34 34 31 31 33 36 39 42 45 47 49 50 52 53 55
6 11 6 6 4 10 10 13 14 12 19 18 28 61 63 66 79 87 87 83 78 73 67 60 59 57 52 51 50 49 45 41 38 37 38 37 35 35 38 40 42 45 48 50 53 55 56 59 60
7 6 4 6 8 10 5 12 17 19 20 25 48 72 75 72 77 85 90 88 84 79 76 73 68 64 62 59 57 54 48 44 42 43 40 37 38 40 43 45 48 50 51 54 57 59 60 63 66
4 12 13 9 13 7 6 24 11 18 18 28 55 69 71 74 73 75 81 85 88 89 87 85 80 75 67 60 58 57 52 47 48 47 42 39 43 45 47 49 52 54 55 57 61 62 63 67 70
Wind_Direction_500mb
313 255 194 167 109 54 108 111 79 70 75 79 63 47 92 64 29 84 324 108 97 79 86 87 81 97 121 123 123 108 100 96 94 105 104 97 102 113 113 109 103 92 84 75 65 43 40 88 80
326 236 195 111 189 170 195 332 110 54 350 128 80 57 48 66 22 330 62 330 126 93 90 94 73 59 117 113 115 97 95 90 89 84 86 93 108 118 118 118 111 112 100 57 13 358 13 70 105
315 174 144 74 10 185 140 60 6 93 47 35 83 62 61 11 346 344 329 330 142 116 102 106 92 77 103 109 112 102 104 106 99 100 93 87 92 110 127 151 172 202 288 337 30 38 50 81 87
247 120 68 62 80 37 65 24 321 69 52 45 79 63 83 32 4 340 332 353 164 142 121 119 117 111 105 118 112 107 117 107 101 98 92 84 80 97 108 113 88 73 62 52 40 42 46 55 56
155 88 88 70 50 100 38 2 33 62 40 49 3 114 74 17 15 4 7 55 138 163 150 131 142 146 141 140 141 136 127 115 102 95 86 76 72 73 66 59 52 38 44 46 39 38 35 32 34
73 68 75 95 98 83 94 16 25 38 22 49 61 19 84 31 36 32 38 91 125 146 153 181 158 172 174 168 164 152 139 126 109 90 65 53 54 44 33 47 38 22 11 20 20 5 358 1 11
77 54 74 104 127 91 44 19 41 26 36 15 66 42 115 62 56 62 55 86 101 117 136 162 172 172 185 180 178 162 153 138 130 100 34 34 21 17 357 309 329 319 302 309 336 339 335 336 335
73 88 85 46 147 91 22 70 13 39 54 85 76 44 348 34 53 80 89 88 87 91 96 109 122 136 175 193 185 166 159 156 171 187 189 233 305 294 289 287 299 316 304 305 304 301 319 319 315
43 62 54 26 16 119 152 81 51 72 73 63 62 62 67 62 83 110 94 100 91 79 86 89 96 107 127 162 146 170 156 152 168 174 193 82 296 289 310 304 301 318 323 312 330 335 329 322 307
48 64 44 3 21 106 79 91 81 60 61 62 60 57 73 101 109 96 92 83 91 80 72 81 82 90 107 107 120 125 108 123 134 146 130 167 198 283 22 17 30 23 2 12 346 335 324 307 303
43 75 153 57 74 85 82 60 61 101 50 51 76 65 77 81 102 88 80 80 78 86 82 75 82 85 84 85 87 100 103 106 111 103 96 86 82 74 61 53 47 39 36 28 24 18 9 9 357
90 52 54 25 47 65 46 70 60 65 81 74 90 106 98 100 97 89 88 89 89 86 91 82 81 85 87 92 96 97 101 98 95 89 84 82 73 71 61 51 42 32 30 29 25 20 18 8 0
72 83 76 80 83 77 74 65 84 69 79 78 83 98 103 124 107 100 93 88 89 93 91 83 86 90 88 92 91 89 93 93 86 84 77 69 65 59 55 52 49 45 42 38 37 34 30 25 18
118 106 97 75 76 75 63 28 76 71 51 43 42 68 96 103 118 112 112 109 95 91 96 95 87 89 93 93 93 92 88 88 88 83 76 70 63 59 54 54 50 46 44 40 37 36 35 32 29
128 85 105 62 52 146 281 32 30 150 57 337 23 53 68 78 84 108 128 119 122 117 97 96 99 94 90 94 94 93 91 92 87 79 76 70 64 57 54 51 49 44 39 38 38 39 38 37 32
124 69 51 345 343 75 308 254 224 207 175 318 24 49 92 125 127 116 114 130 128 123 121 121 111 101 100 98 96 96 93 89 85 80 74 65 58 52 47 46 45 39 33 29 28 29 31 32 34
21 94 42 109 32 334 27 253 220 201 227 294 321 220 172 154 154 153 136 140 149 151 145 138 140 134 125 107 95 95 93 89 84 78 69 62 54 48 43 41 40 35 30 25 24 20 19 20 25
72 101 63 63 325 52 38 332 236 208 242 261 254 239 227 200 181 181 162 148 147 148 146 141 137 139 132 123 116 109 100 89 78 73 66 57 50 45 38 34 29 26 25 26 23 19 16 15 15
76 69 72 338 337 26 33 261 235 233 256 258 253 239 228 218 202 199 190 178 165 161 161 156 152 146 143 137 134 128 117 95 84 70 61 54 46 39 33 29 25 22 20 20 19 18 15 11 10
47 56 10 301 350 355 340 267 229 223 238 242 246 242 235 227 219 211 203 201 186 179 180 174 167 164 164 164 165 152 126 107 86 67 54 43 35 29 25 24 23 21 19 16 16 16 17 14 11
37 63 345 296 328 30 329 283 218 225 226 234 238 239 239 231 223 216 213 209 203 196 191 191 186 186 185 186 189 179 159 144 117 73 46 31 23 19 17 17 16 15 13 11 12 12 13 12 11
56 326 35 5 31 290 28 278 274 232 236 218 231 229 230 227 226 221 222 218 213 204 206 205 203 205 203 203 207 204 205 211 213 267 352 5 2 3 3 4 5 7 8 9 9 9 7 4 3
135 13 44 34 67 44 356 52 271 43 250 235 229 226 224 222 222 220 219 216 216 212 215 214 215 216 215 218 220 220 224 231 241 258 298 322 335 343 348 353 354 356 358 1 360 359 358 356 354
101 15 34 58 75 23 263 111 275 196 219 239 223 225 222 220 220 222 222 222 220 217 218 219 221 221 223 226 228 230 234 239 245 257 270 289 308 321 330 339 340 340 346 347 348 348 347 348 346
57 44 337 352 9 226 118 33 248 251 237 225 220 224 223 221 219 220 219 220 220 220 220 221 224 223 225 228 231 234 239 245 249 255 265 278 291 306 317 322 324 327 330 333 335 336 338 338 338
85 131 153 241 264 272 12 239 249 217 250 245 249 239 228 223 223 222 220 220 220 220 221 223 225 225 227 231 234 238 241 247 252 257 269 277 287 297 302 307 312 316 320 323 323 325 326 329 329
191 175 142 102 57 28 241 281 289 233 251 246 228 227 226 226 225 225 225 225 226 224 224 225 227 228 228 233 235 238 243 247 256 260 264 273 280 292 294 302 307 310 311 311 312 314 317 320 321
171 147 72 5 315 295 280 282 244 275 244 223 230 225 225 223 226 229 229 229 229 229 229 231 232 233 233 236 238 241 244 249 255 261 265 274 281 286 291 297 301 302 304 305 305 309 312 313 314
154 200 80 117 163 198 283 250 217 235 226 212 225 227 226 224 225 227 230 231 231 232 233 233 234 235 235 235 238 242 244 249 255 262 269 276 282 287 289 293 294 297 300 303 303 306 307 309 309
236 200 162 144 228 235 155 259 246 243 272 244 238 235 234 230 231 231 231 232 232 231 230 232 234 237 239 240 243 246 248 248 253 261 270 277 282 285 289 291 292 296 297 300 302 302 304 305 307
Wind_Speed_850mb
13 13 8 11 5 5 6 8 4 8 7 8 16 13 17 17 9 3 5 7 11 19 44 45 44 26 28 33 22 16 19 25 25 23 24 28 27 26 26 25 26 27 25 22 17 15 11 7 9
9 7 10 8 5 9 4 5 9 14 10 11 9 6 14 10 13 10 1 5 11 19 38 50 57 49 35 28 23 23 30 30 31 31 30 25 22 20 20 18 16 12 10 5 11 16 11 4 5
5 5 7 4 1 12 10 4 5 2 23 14 9 18 9 11 16 14 19 8 5 15 28 48 53 53 33 27 22 24 24 28 28 26 27 25 21 19 16 10 7 4 4 7 11 15 15 12 5
3 7 15 7 9 9 7 11 11 3 8 27 16 15 15 23 14 24 18 2 8 11 22 46 47 46 42 33 28 24 20 20 20 18 18 18 16 15 12 9 8 9 11 13 15 14 11 9 5
3 9 9 9 9 8 13 14 23 12 8 20 17 6 10 15 13 19 11 3 5 7 14 19 43 33 35 31 28 23 17 14 16 16 15 13 14 13 12 11 11 11 11 10 9 9 9 8 8
8 6 7 6 7 6 8 21 10 18 20 14 18 7 7 10 10 17 12 7 10 9 11 11 24 35 34 29 24 21 19 15 14 13 11 9 8 7 6 5 6 7 7 6 6 6 7 6 5
10 7 8 10 11 9 7 10 14 10 17 18 14 3 5 11 23 18 20 15 17 14 13 11 19 18 29 39 32 30 25 19 11 5 4 4 4 3 6 5 6 9 7 5 5 6 9 10 8
12 8 8 9 5 5 9 4 6 21 12 3 11 5 5 16 20 16 25 29 27 25 21 14 18 19 19 30 37 34 29 20 13 9 5 3 7 8 8 10 12 14 14 12 11 9 9 12 12
11 9 9 11 6 6 9 7 14 18 27 32 18 14 8 12 13 18 28 34 36 32 31 31 24 24 23 27 30 26 29 19 12 5 3 2 5 5 6 8 9 11 14 20 11 15 14 14 16
22 9 11 12 8 6 18 11 7 10 15 25 22 21 12 15 15 22 31 39 38 39 37 33 33 32 29 27 34 28 26 23 15 10 10 6 3 3 7 12 13 13 14 14 13 14 14 16 17
17 9 5 22 25 19 14 16 10 7 14 16 13 16 21 18 21 29 30 33 37 36 36 37 36 34 32 31 31 32 29 25 22 20 19 17 16 16 14 15 13 15 16 15 15 15 14 14 14
20 37 20 14 19 9 9 10 18 26 12 8 12 15 15 23 25 28 29 32 29 32 31 29 31 33 32 30 26 27 27 24 22 22 21 18 17 17 17 16 16 16 19 21 21 22 24 21 19
24 20 34 39 47 46 38 34 15 21 17 15 15 18 18 13 29 28 31 29 29 30 33 33 27 25 26 27 28 25 24 24 26 25 23 23 23 23 24 25 25 25 26 26 27 27 28 26 24
21 37 21 26 23 23 16 7 5 8 16 14 16 20 21 22 20 26 27 31 28 29 31 36 31 31 29 29 29 29 27 28 28 28 30 29 29 29 29 29 30 31 32 32 32 33 33 32 28
29 17 18 9 4 4 2 7 6 7 6 10 10 7 13 17 19 23 21 22 30 29 25 29 33 29 28 28 31 31 31 28 31 31 30 30 29 30 30 31 32 36 35 34 34 35 35 35 34
2 7 7 12 10 4 4 5 8 8 6 6 5 2 3 6 12 14 13 23 24 26 30 28 27 25 24 24 26 29 28 28 30 29 29 30 30 31 31 33 36 38 37 38 38 40 41 42 41
16 7 8 4 15 6 10 7 12 16 11 10 8 5 7 8 7 8 11 14 18 20 20 23 24 24 21 18 19 21 23 23 26 25 27 29 29 31 31 34 37 38 40 43 47 49 50 49 49
2 9 6 5 8 8 6 4 7 22 17 18 14 11 10 12 14 14 15 16 14 15 19 21 20 21 21 18 17 17 18 19 21 23 26 27 28 29 32 35 37 40 42 46 49 54 57 59 58
10 9 7 7 8 5 3 3 13 25 25 30 29 22 20 18 17 20 20 20 21 22 19 18 17 17 16 15 13 12 13 15 14 18 22 23 25 28 30 34 37 42 45 49 50 54 61 66 71
12 5 8 5 9 4 5 15 18 32 26 37 33 31 28 24 24 26 26 24 24 22 21 20 20 20 16 14 12 11 10 11 11 14 16 18 21 25 29 33 38 40 42 45 52 57 60 66 72
9 7 4 3 9 3 13 12 10 16 38 39 40 39 37 36 33 33 35 34 30 29 26 23 21 20 19 15 13 10 7 6 5 5 8 13 18 23 27 31 35 39 42 45 49 53 57 58 59
5 5 2 6 7 3 10 8 11 11 17 28 57 54 54 49 44 39 39 40 38 32 32 30 27 25 23 20 18 14 11 10 6 2 5 10 14 19 23 27 31 35 38 42 48 51 53 56 57
2 4 5 4 6 7 9 6 14 4 14 28 52 72 68 62 55 49 47 43 39 38 40 36 35 33 28 26 23 20 18 15 11 8 8 10 14 18 22 26 30 34 38 42 44 47 49 50 51
1 2 8 6 4 6 8 7 12 11 18 10 44 77 78 71 66 60 50 43 45 46 47 44 42 37 36 33 30 27 23 20 17 14 13 13 15 18 22 26 31 34 37 39 42 44 45 47 48
9 8 8 11 9 9 2 3 24 14 17 17 35 75 82 78 74 70 65 61 56 55 52 50 50 46 43 40 38 32 28 27 24 21 20 19 20 20 24 28 32 35 38 40 41 43 44 46 48
4 8 8 9 5 9 8 13 14 15 16 42 36 42 72 81 81 80 76 71 64 59 57 56 54 50 48 45 40 37 36 33 31 27 27 27 26 26 28 32 35 38 41 43 45 46 47 48 51
5 6 7 14 2 6 7 16 23 13 19 22 41 38 55 77 84 85 80 77 72 65 61 59 57 53 51 48 43 44 41 39 34 32 34 34 31 31 33 36 39 42 45 47 49 50 52 53 55
6 11 6 6 4 10 10 13 14 12 19 18 28 61 63 66 79 87 87 83 78 73 67 60 59 57 52 51 50 49 45 41 38 37 38 37 35 35 38 40 42 45 48 50 53 55 56 59 60
7 6 4 6 8 10 5 12 17 19 20 25 48 72 75 72 77 85 90 88 84 79 76 73 68 64 62 59 57 54 48 44 42 43 40 37 38 40 43 45 48 50 51 54 57 59 60 63 66
4 12 13 9 13 7 6 24 11 18 18 28 55 69 71 74 73 75 81 85 88 89 87 85 80 75 67 60 58 57 52 47 48 47 42 39 43 45 47 49 52 54 55 57 61 62 63 67 70
Wind_Direction_850mb
313 255 194 167 109 54 108 111 79 70 75 79 63 47 92 64 29 84 324 108 97 79 86 87 81 97 121 123 123 108 100 96 94 105 104 97 102 113 113 109 103 92 84 75 65 43 40 88 80
326 236 195 111 189 170 195 332 110 54 350 128 80 57 48 66 22 330 62 330 126 93 90 94 73 59 117 113 115 97 95 90 89 84 86 93 108 118 118 118 111 112 100 57 13 358 13 70 105
315 174 144 74 10 185 140 60 6 93 47 35 83 62 61 11 346 344 329 330 142 116 102 106 92 77 103 109 112 102 104 106 99 100 93 87 92 110 127 151 172 202 288 337 30 38 50 81 87
247 120 68 62 80 37 65 24 321 69 52 45 79 63 83 32 4 340 332 353 164 142 121 119 117 111 105 118 112 107 117 107 101 98 92 84 80 97 108 113 88 73 62 52 40 42 46 55 56
155 88 88 70 50 100 38 2 33 62 40 49 3 114 74 17 15 4 7 55 138 163 150 131 142 146 141 140 141 136 127 115 102 95 86 76 72 73 66 59 52 38 44 46 39 38 35 32 34
73 68 75 95 98 83 94 16 25 38 22 49 61 19 84 31 36 32 38 91 125 146 153 181 158 172 174 168 164 152 139 126 109 90 65 53 54 44 33 47 38 22 11 20 20 5 358 1 11
77 54 74 104 127 91 44 19 41 26 36 15 66 42 115 62 56 62 55 86 101 117 136 162 172 172 185 180 178 162 153 138 130 100 34 34 21 17 357 309 329 319 302 309 336 339 335 336 335
73 88 85 46 147 91 22 70 13 39 54 85 76 44 348 34 53 80 89 88 87 91 96 109 122 136 175 193 185 166 159 156 171 187 189 233 305 294 289 287 299 316 304 305 304 301 319 319 315
43 62 54 26 16 119 152 81 51 72 73 63 62 62 67 62 83 110 94 100 91 79 86 89 96 107 127 162 146 170 156 152 168 174 193 82 296 289 310 304 301 318 323 312 330 335 329 322 307
48 64 44 3 21 106 79 91 81 60 61 62 60 57 73 101 109 96 92 83 91 80 72 81 82 90 107 107 120 125 108 123 134 146 130 167 198 283 22 17 30 23 2 12 346 335 324 307 303
43 75 153 57 74 85 82 60 61 101 50 51 76 65 77 81 102 88 80 80 78 86 82 75 82 85 84 85 87 100 103 106 111 103 96 86 82 74 61 53 47 39 36 28 24 18 9 9 357
90 52 54 25 47 65 46 70 60 65 81 74 90 106 98 100 97 89 88 89 89 86 91 82 81 85 87 92 96 97 101 98 95 89 84 82 73 71 61 51 42 32 30 29 25 20 18 8 0
72 83 76 80 83 77 74 65 84 69 79 78 83 98 103 124 107 100 93 88 89 93 91 83 86 90 88 92 91 89 93 93 86 84 77 69 65 59 55 52 49 45 42 38 37 34 30 25 18
118 106 97 75 76 75 63 28 76 71 51 43 42 68 96 103 118 112 112 109 95 91 96 95 87 89 93 93 93 92 88 88 88 83 76 70 63 59 54 54 50 46 44 40 37 36 35 32 29
128 85 105 62 52 146 281 32 30 150 57 337 23 53 68 78 84 108 128 119 122 117 97 96 99 94 90 94 94 93 91 92 87 79 76 70 64 57 54 51 49 44 39 38 38 39 38 37 32
124 69 51 345 343 75 308 254 224 207 175 318 24 49 92 125 127 116 114 130 128 123 121 121 111 101 100 98 96 96 93 89 85 80 74 65 58 52 47 46 45 39 33 29 28 29 31 32 34
21 94 42 109 32 334 27 253 220 201 227 294 321 220 172 154 154 153 136 140 149 151 145 138 140 134 125 107 95 95 93 89 84 78 69 62 54 48 43 41 40 35 30 25 24 20 19 20 25
72 101 63 63 325 52 38 332 236 208 242 261 254 239 227 200 181 181 162 148 147 148 146 141 137 139 132 123 116 109 100 89 78 73 66 57 50 45 38 34 29 26 25 26 23 19 16 15 15
76 69 72 338 337 26 33 261 235 233 256 258 253 239 228 218 202 199 190 178 165 161 161 156 152 146 143 137 134 128 117 95 84 70 61 54 46 39 33 29 25 22 20 20 19 18 15 11 10
47 56 10 301 350 355 340 267 229 223 238 242 246 242 235 227 219 211 203 201 186 179 180 174 167 164 164 164 165 152 126 107 86 67 54 43 35 29 25 24 23 21 19 16 16 16 17 14 11
37 63 345 296 328 30 329 283 218 225 226 234 238 239 239 231 223 216 213 209 203 196 191 191 186 186 185 186 189 179 159 144 117 73 46 31 23 19 17 17 16 15 13 11 12 12 13 12 11
56 326 35 5 31 290 28 278 274 232 236 218 231 229 230 227 226 221 222 218 213 204 206 205 203 205 203 203 207 204 205 211 213 267 352 5 2 3 3 4 5 7 8 9 9 9 7 4 3
135 13 44 34 67 44 356 52 271 43 250 235 229 226 224 222 222 220 219 216 216 212 215 214 215 216 215 218 220 220 224 231 241 258 298 322 335 343 348 353 354 356 358 1 360 359 358 356 354
101 15 34 58 75 23 263 111 275 196 219 239 223 225 222 220 220 222 222 222 220 217 218 219 221 221 223 226 228 230 234 239 245 257 270 289 308 321 330 339 340 340 346 347 348 348 347 348 346
57 44 337 352 9 226 118 33 248 251 237 225 220 224 223 221 219 220 219 220 220 220 220 221 224 223 225 228 231 234 239 245 249 255 265 278 291 306 317 322 324 327 330 333 335 336 338 338 338
85 131 153 241 264 272 12 239 249 217 250 245 249 239 228 223 223 222 220 220 220 220 221 223 225 225 227 231 234 238 241 247 252 257 269 277 287 297 302 307 312 316 320 323 323 325 326 329 329
191 175 142 102 57 28 241 281 289 233 251 246 228 227 226 226 225 225 225 225 226 224 224 225 227 228 228 233 235 238 243 247 256 260 264 273 280 292 294 302 307 310 311 311 312 314 317 320 321
171 147 72 5 315 295 280 282 244 275 244 223 230 225 225 223 226 229 229 229 229 229 229 231 232 233 233 236 238 241 244 249 255 261 265 274 281 286 291 297 301 302 304 305 305 309 312 313 314
154 200 80 117 163 198 283 250 217 235 226 212 225 227 226 224 225 227 230 231 231 232 233 233 234 235 235 235 238 242 244 249 255 262 269 276 282 287 289 293 294 297 300 303 303 306 307 309 309
236 200 162 144 228 235 155 259 246 243 272 244 238 235 234 230 231 231 231 232 232 231 230 232 234 237 239 240 243 246 248 248 253 261 270 277 282 285 289 291 292 296 297 300 302 302 304 305 307